GW7014 Weather Reports


time (UTC)temp
C
wind
direction
speed
KPH
gust
KPH
rain 1hr
cm
rain 24hr
cm
rain mn
cm
humidity
%
barometer
mb
20260507070021 12 295 0.0 1.6 0.00 0.20 0.00 71 1006.1
20260507064525 12 47 0.0 3.2 0.00 0.20 0.00 69 1006.0
20260507063028 13 288 0.0 3.2 0.00 0.20 0.00 69 1006.2
20260507061529 13 256 0.0 1.6 0.00 0.20 0.00 63 1006.1
20260507060016 13 37 0.0 3.2 0.00 0.20 0.00 62 1006.1
20260507054520 13 131 0.0 8.0 0.00 0.20 0.00 62 1006.2
20260507053028 13 300 0.0 6.4 0.00 0.20 0.00 61 1006.5
20260507051528 14 249 0.0 0.0 0.00 0.20 0.00 55 1006.3
20260507050031 14 257 0.0 8.0 0.00 0.20 0.00 55 1006.1
20260507044517 15 53 1.6 8.0 0.00 0.20 0.00 26 1006.3
20260507043010 15 244 0.0 0.0 0.00 0.20 0.00 8 1006.1
20260507041504 15 290 0.0 4.8 0.00 0.20 0.00 100 1006.1
20260507040008 15 234 0.0 0.0 0.00 0.20 0.00 100 1006.4
20260507034522 15 196 0.0 3.2 0.00 0.20 0.20 100 1006.4
20260507033020 15 248 3.2 16.1 0.00 0.20 0.20 100 1006.0
20260507031505 15 217 1.6 11.3 0.00 0.20 0.20 1 1006.0
20260507030007 15 239 3.2 17.7 0.00 0.20 0.20 2 1005.8
20260507024514 15 203 4.8 11.3 0.00 0.20 0.20 100 1005.6
20260507023018 15 217 1.6 16.1 0.00 0.20 0.20 100 1006.1
20260507021523 15 219 1.6 20.9 0.00 0.20 0.20 100 1005.9
20260507020006 15 225 6.4 16.1 0.00 0.20 0.20 100 1005.9
20260507014506 15 210 8.0 19.3 0.00 0.20 0.20 100 1005.9
20260507013013 15 217 6.4 19.3 0.00 0.20 0.20 100 1006.1
20260507011532 15 200 4.8 19.3 0.00 0.20 0.20 100 1006.2
20260507010024 15 213 6.4 17.7 0.00 0.20 0.20 100 1006.4
20260507004506 15 232 4.8 16.1 0.00 0.20 0.20 100 1006.4
20260507003008 14 252 6.4 17.7 0.03 0.20 0.20 100 1006.3
20260507001538 15 243 1.6 19.3 0.05 0.20 0.20 100 1006.1
20260507000023 15 229 4.8 20.9 0.08 0.20 0.20 1 1005.8
20260506234524 15 229 4.8 17.7 0.08 0.20 0.20 3 1005.9
20260506233009 15 243 3.2 16.1 0.05 0.18 0.18 6 1005.8
20260506231511 15 196 6.4 24.1 0.03 0.15 0.15 12 1005.9
20260506230017 15 250 1.6 16.1 0.00 0.13 0.13 16 1005.8
20260506224522 15 246 4.8 12.9 0.00 0.13 0.13 13 1005.9
20260506223031 15 226 6.4 19.3 0.03 0.13 0.13 11 1006.0
20260506221508 15 224 1.6 17.7 0.03 0.13 0.13 11 1006.3
20260506220012 15 162 3.2 14.5 0.03 0.13 0.13 15 1006.4
20260506214517 16 192 3.2 20.9 0.03 0.13 0.13 27 1006.5
20260506213020 16 198 4.8 20.9 0.00 0.10 0.10 43 1006.8
20260506211526 16 203 11.3 22.5 0.03 0.10 0.10 48 1006.7
20260506210009 16 168 8.0 17.7 0.03 0.10 0.10 50 1006.8
20260506204514 16 109 8.0 25.7 0.05 0.10 0.10 49 1006.8
20260506203022 16 172 6.4 24.1 0.05 0.10 0.10 58 1007.0
20260506201526 16 231 3.2 17.7 0.05 0.08 0.08 58 1006.8
20260506200032 17 185 6.4 16.1 0.08 0.08 0.08 65 1006.7
20260506194516 17 155 6.4 14.5 0.05 0.05 0.05 70 1006.8
20260506193029 18 194 6.4 17.7 0.05 0.05 0.05 72 1007.0
20260506191521 19 228 3.2 11.3 0.03 0.03 0.03 72 1007.0
20260506190031 20 212 6.4 14.5 0.00 0.00 0.00 67 1006.9
20260506184537 20 212 6.4 14.5 0.00 0.00 0.00 65 1006.9
20260506183015 21 161 6.4 27.4 0.00 0.00 0.00 61 1007.1
20260506181525 21 210 8.0 27.4 0.00 0.00 0.00 58 1007.2
20260506180025 22 260 8.0 40.2 0.00 0.00 0.00 55 1007.3
20260506174527 22 172 4.8 25.7 0.00 0.00 0.00 55 1007.4
20260506173028 22 147 6.4 32.2 0.00 0.00 0.00 57 1007.4
20260506171518 22 203 12.9 25.7 0.00 0.00 0.00 57 1007.6
20260506170028 22 116 4.8 29.0 0.00 0.00 0.00 59 1007.6
20260506164542 22 219 8.0 25.7 0.00 0.00 0.00 58 1007.8
20260506163028 22 179 12.9 32.2 0.00 0.00 0.00 58 1007.9
20260506161530 22 198 8.0 17.7 0.00 0.00 0.00 59 1008.2
20260506160020 22 200 6.4 24.1 0.00 0.00 0.00 58 1008.5
20260506154526 22 252 8.0 24.1 0.00 0.00 0.00 58 1008.7
20260506153024 22 274 6.4 20.9 0.00 0.00 0.00 57 1008.9
20260506151533 22 241 9.7 25.7 0.00 0.00 0.00 58 1008.9
20260506150030 22 198 9.7 22.5 0.00 0.00 0.00 59 1009.1
20260506144527 21 197 9.7 17.7 0.00 0.00 0.00 61 1008.9
20260506143024 21 207 9.7 29.0 0.00 0.00 0.00 62 1009.0
20260506141530 21 155 9.7 22.5 0.00 0.00 0.00 63 1008.8
20260506140028 20 240 6.4 24.1 0.00 0.00 0.00 66 1009.0
20260506134530 19 157 9.7 20.9 0.00 0.00 0.00 68 1009.0
20260506133021 18 270 8.0 22.5 0.00 0.00 0.00 70 1009.6
20260506131526 18 174 11.3 27.4 0.00 0.00 0.00 70 1009.8
20260506130030 18 203 3.2 14.5 0.00 0.00 0.00 71 1009.6
20260506124513 17 166 8.0 19.3 0.00 0.00 0.00 72 1009.8
20260506123006 17 225 8.0 17.7 0.00 0.00 0.00 73 1010.1
20260506121508 17 142 6.4 24.1 0.00 0.00 0.00 73 1009.9
20260506120020 16 153 3.2 17.7 0.00 0.00 0.00 73 1010.2
20260506114510 16 191 6.4 17.7 0.00 0.00 0.00 72 1010.1
20260506113017 16 235 1.6 20.9 0.00 0.00 0.00 71 1010.5
20260506111504 16 229 4.8 20.9 0.00 0.00 0.00 71 1010.3
20260506110006 16 239 4.8 20.9 0.00 0.00 0.00 71 1010.2
20260506104513 15 158 3.2 14.5 0.00 0.00 0.00 70 1010.2
20260506103034 15 234 4.8 11.3 0.00 0.00 0.00 70 1010.3
20260506101519 15 157 4.8 16.1 0.00 0.00 0.00 70 1010.3
20260506100005 15 202 9.7 19.3 0.00 0.00 0.00 71 1010.3
20260506094503 15 215 4.8 17.7 0.00 0.00 0.00 71 1010.0
20260506093018 15 182 4.8 11.3 0.00 0.00 0.00 71 1010.2
20260506091519 15 250 3.2 11.3 0.00 0.00 0.00 72 1010.0
20260506090020 16 155 3.2 16.1 0.00 0.00 0.00 72 1010.1
20260506084506 16 250 4.8 17.7 0.00 0.00 0.00 73 1010.1
20260506083010 16 202 4.8 20.9 0.00 0.00 0.00 73 1010.2
20260506081518 16 221 4.8 20.9 0.00 0.00 0.00 73 1010.0
20260506073007 16 219 8.0 27.4 0.00 0.00 0.00 72 1010.0
20260506071516 17 249 9.7 22.5 0.00 0.00 0.00 72 1009.8